Regional Weather Roundup
Issued by NWS

Home | Current Version | Previous Version | Text Only | Print | Product List | Glossary Off
Versions: 1 2 3 4 5 6 7 8 9 10 11 12 13 14 15 16 17 18 19 20 21 22 23 24 25 26 27 28 29 30 31 32 33 34 35 36 37 38 39 40 41 42 43 44 45 46 47 48 49 50

000
ASUS43 KMKX 292121
RWRWI

WISCONSIN REGIONAL WEATHER ROUNDUP
NATIONAL WEATHER SERVICE MILWAUKEE/SULLIVAN WI
400 PM CDT SAT AUG 29 2015

NOTE: "FAIR" INDICATES FEW OR NO CLOUDS BELOW 12,000 FEET WITH NO
SIGNIFICANT WEATHER AND/OR OBSTRUCTIONS TO VISIBILITY.

WIZ001-002-006>008-014>016-023>028-292200-
NORTHWEST WISCONSIN

CITY           SKY/WX    TMP DP  RH WIND       PRES   REMARKS
SUPERIOR ARPT  CLOUDY    74  64  70 W8        29.99F
ASHLAND        FAIR      79  65  62 W8        30.00F HX  81
HAYWARD        CLOUDY    74  61  63 S9        30.03F
SIREN          FAIR      74  62  64 W7        30.04S
CUMBERLAND     FAIR      72  59  64 S5        30.05S
RICE LAKE      FAIR      74  62  66 CALM      30.05F
CHETEK         FAIR     N/A N/A N/A SE3       30.04F
LADYSMITH      FAIR      74  62  65 S3        30.06S
EAU CLAIRE     FAIR      70  60  70 S6        30.05S
MENOMONIE      FAIR      71  61  71 SE5       30.04F
NEW RICHMOND   FAIR      73  60  65 SW5       30.04F
OSCEOLA        FAIR      73  60  64 S5        30.06F
$$

WIZ003>005-009-010-017-018-292200-
NORTH CENTRAL WISCONSIN

CITY           SKY/WX    TMP DP  RH WIND       PRES   REMARKS
MANITOWISH WTR CLOUDY    73  60  64 NW5       30.04S
ARBOR VITAE    PTSUNNY   77  62  59 S6        30.04S
WOODRUFF       PTSUNNY   77  62  59 S6        30.04S
RHINELANDER    FAIR      75  58  55 W6        30.06F
EAGLE RIVER    PTSUNNY   75  55  49 SW5       30.04S
LAND O LAKES   FAIR      76  57  51 CALM      30.04F
PHILLIPS       FAIR      74  60  59 SW5       30.04S
TOMAHAWK       FAIR      72  59  64 SE5       30.06S
MEDFORD        PTSUNNY   70  62  75 CALM      30.06F
MERRILL        FAIR      71  61  70 CALM      30.07S
$$

WIZ029-030-035-036-043>047-292200-
CENTRAL WISCONSIN

CITY           SKY/WX    TMP DP  RH WIND       PRES   REMARKS
WAUSAU         CLOUDY    67  59  75 SW3       30.05S
MOSINEE        CLOUDY    64  61  88 CALM      30.08S
MARSHFIELD     CLOUDY    67  58  72 SE3       30.07S
STEVENS POINT  CLOUDY    63  59  87 CALM      30.07S
WAUPACA        CLOUDY    70  63  80 NW3       30.05F
WAUTOMA        CLOUDY    70  63  78 N5        30.05F
WISC RAPIDS    NOT AVBL
CAMP DOUGLAS   CLOUDY    70  68  94 N3        30.05S
$$

WIZ011>013-019>022-031-037>040-048>050-292200-
NORTHEAST WISCONSIN

CITY           SKY/WX    TMP DP  RH WIND       PRES   REMARKS
ANTIGO         CLOUDY    68  58  71 CALM      30.07S
SHAWANO        FAIR      72  60  67 NE3       30.05F
OCONTO         CLOUDY    68  63  85 CALM      30.04F
STURGEON BAY   CLOUDY    66  61  82 N3        30.07S
GREEN BAY      CLOUDY    72  63  73 CALM      30.04S
MANITOWOC      PTSUNNY   66  61  82 MISG      30.05S
APPLETON       PTSUNNY   70  61  73 CALM      30.03S
CLINTONVILLE   CLOUDY    68  59  73 NW3       30.05S
OSHKOSH        CLOUDY    69  61  75 E5        30.03F
$$

WIZ032>034-041-042-053>061-292200-
SOUTHWEST WISCONSIN

CITY           SKY/WX    TMP DP  RH WIND       PRES   REMARKS
LA CROSSE      CLOUDY    74  62  66 N6        30.04S
SPARTA         CLOUDY    70  59  68 NE6       30.06S
VIROQUA          N/A     70  62  75 NE5       30.05F
BOSCOBEL       CLOUDY    71  63  75 E5        30.04S
PRAIRIE DU CHI CLOUDY    71  61  71 E3        30.03S
PLATTEVILLE    CLOUDY    71  66  84 NE5       30.03S
$$

WIZ056-057-062-063-064-067-068-292200-
SOUTH CENTRAL WISCONSIN

CITY           SKY/WX    TMP DP  RH WIND       PRES   REMARKS
REEDSBURG      CLOUDY    68  62  80 NE5       30.04S
BARABOO/DELLS  CLOUDY    69  60  74 NE5       30.04S
LONE ROCK      CLOUDY    71  62  73 NE6       30.04S
MINERAL POINT  CLOUDY    70  63  78 N6        30.04S
MADISON        CLOUDY    67  62  84 E7        30.03S
MIDDLETON      CLOUDY    69  65  88 NE5       30.04S
WATERTOWN      CLOUDY    67  67 100 NE5       30.03S
MONROE         CLOUDY    68  63  83 N6        30.03S
JANESVILLE     CLOUDY    72  63  73 CALM      30.01
$$

WIZ051-052-058>065-066-070>072-292200-
SOUTHEAST WISCONSIN

CITY           SKY/WX    TMP DP  RH WIND       PRES   REMARKS
MILWAUKEE      FOG       60  59  96 NE6       30.03F VSB 1/2
WAUKESHA       CLOUDY    63  61  94 E6        30.05S FOG
MILWAUKEE/TIMM CLOUDY    63  61  94 E6        30.05S FOG
RACINE         CLOUDY    61  59  93 N6        30.04F FOG
BURLINGTON     CLOUDY    66  63  90 NE3       30.02S
KENOSHA        CLOUDY    67  64  90 NE6       30.02F FOG
FOND DU LAC    CLOUDY    67  62  84 SE6       30.04S
SHEBOYGAN      CLOUDY    67  62  84 S6        30.04F
WEST BEND      CLOUDY    63  59  88 CALM      30.04F
JUNEAU         CLOUDY    68  62  81 E3        30.05S
$$

LSZ147-162-292200-
LAKE SUPERIOR

STATION/POSITION TIME  TEMP    WIND        PRES    WAVE
                       AIR SEA DIR/SP/G            HT/PER
                 (UTC) (F)     (DEG/KT/KT) (MB)    (FT/S)
W MID LAKE BUOY  2050   59 55  220/ 10/ 10 1015.4F   2/ 4
DEVILS ISLAND    2100   67     220/  7/ 10 1015.4F
PORT WING        2000   69     250/  4/  7 1016.3
SAXON HARBOR     2040   69        CALM     1015.6F
$$

LMZ867-665-643>646-292200-
LAKE MICHIGAN

STATION/POSITION TIME  TEMP    WIND        PRES    WAVE
                       AIR SEA DIR/SP/G            HT/PER
                 (UTC) (F)     (DEG/KT/KT) (MB)    (FT/S)
CHAMBERS ISLAND  2000   67     160/  6/ 10 1017.6F
S GREEN BAY BUOY 2100   64 64   30/  6/  8 1018.7
N MID LAKE BUOY  2050   64 65  210/  6/  6 1017.2F   1
NORTHPORT PIER   2000   64     340/  6/  8 1017.6F
SISTER BAY       2019   68      10/  6/  8   N/A
SHEBOYGAN LAKESH 2100   58     150/  2/  2 1017.8F
PORT WASHINGTON  2000   58      50/  3/  4 1018.3
ATWATER BUOY     2100   52 48  360/  6/  8 1018.4F
MILWAUKEE LAKESH 2000   56      20/ 10/ 10   N/A
S MID LAKE BUOY  2050   67 68  110/ 12/ 14 1016.4F   2/ 4
KENOSHA   LAKESH 2100   61     360/  6/  6 1016.3F
$$

TC  - TEMPERATURE IN CELSIUS
VSB - VISIBILITY IN STATUTE MILES
WCI - WIND CHILL INDEX
HX  - HEAT INDEX



USA.gov is the U.S. government's official web portal to all federal, state and local government web resources and services.